Mojave, CA

11:49 PM PST on December 10, 2019 (GMT -0800)
Mojave

Weather History for KMHV - May, 2019

Change the Weather History Date:

Thursday, May 9, 2019

  Actual Average Record
Temperature  
Mean Temperature 66 °F -  
Max Temperature 78 °F 77 °F 91 °F (2001)
Min Temperature 53 °F 53 °F 39 °F (1991)
Growing Degree Days 16 (Base 50)    
Moisture  
Dew Point 46 °F    
Average Humidity 51    
Maximum Humidity 77    
Minimum Humidity 25    
Precipitation  
Precipitation 0.00 in - - ()
Sea Level Pressure  
Sea Level Pressure 29.76 in    
Wind  
Wind Speed 12 mph (WSW)    
Max Wind Speed 24 mph    
Max Gust Speed 33 mph    
Visibility 10 miles    
Events Thunderstorm    
Averages and records for this station are not official NWS values.
T = Trace of Precipitation, MM = Missing Value Source: NWS Daily Summary

Daily Weather History Graph

Daily Weather History Graph

Search for Another Location

Airport or City:

Astronomy

May. 09, 2019 Rise Set
Actual Time 5:53 AM PDT 7:44 PM PDT
Civil Twilight 5:26 AM PDT 8:12 PM PDT
Nautical Twilight 4:52 AM PDT 8:45 PM PDT
Astronomical Twilight 4:17 AM PDT 9:21 PM PDT
Moon 9:57 AM PDT (5/9) No Moon Set
Length of Visible Light 14h 45m
Length of Day
13h 50m
Waxing Crescent, 26% of the Moon is Illuminated
May 9
Waxing Crescent
May 11
First Quarter
May 18
Full
May 26
Last Quarter
Jun 3
New

Hourly Weather History & Observations

Time (PDT) Temp. Dew Point Humidity Pressure Visibility Wind Dir Wind Speed Gust Speed Precip Events Conditions
12:00 AM 66.2 °F 44.6 °F 46% 29.81 in 10.0 mi WNW 24.2 mph 33.4 mph N/A   Clear
12:20 AM 66.2 °F 44.6 °F 46% 29.81 in 10.0 mi WNW 24.2 mph 31.1 mph N/A   Clear
12:40 AM 66.2 °F 44.6 °F 46% 29.81 in 10.0 mi NW 18.4 mph 27.6 mph N/A   Clear
1:00 AM 66.2 °F 44.6 °F 46% 29.80 in 10.0 mi WNW 21.9 mph - N/A   Clear
1:20 AM 64.4 °F 44.6 °F 49% 29.81 in 10.0 mi NNW 12.7 mph 19.6 mph N/A   Clear
1:40 AM 64.4 °F 44.6 °F 49% 29.81 in 10.0 mi NW 9.2 mph 16.1 mph N/A   Clear
2:00 AM 64.4 °F 44.6 °F 49% 29.81 in 10.0 mi WNW 6.9 mph 18.4 mph N/A   Clear
2:20 AM 64.4 °F 46.4 °F 52% 29.80 in 10.0 mi WNW 11.5 mph - N/A   Clear
2:40 AM 62.6 °F 46.4 °F 55% 29.80 in 10.0 mi WNW 11.5 mph - N/A   Clear
3:00 AM 62.6 °F 46.4 °F 55% 29.80 in 10.0 mi NW 9.2 mph - N/A   Clear
3:20 AM 62.6 °F 46.4 °F 55% 29.80 in 10.0 mi WNW 9.2 mph - N/A   Clear
3:40 AM 62.6 °F 46.4 °F 55% 29.79 in 10.0 mi NW 11.5 mph - N/A   Clear
4:00 AM 62.6 °F 46.4 °F 55% 29.78 in 10.0 mi WNW 12.7 mph - N/A   Clear
4:20 AM 62.6 °F 46.4 °F 55% 29.78 in 10.0 mi WNW 9.2 mph - N/A   Clear
4:40 AM 60.8 °F 46.4 °F 59% 29.79 in 10.0 mi Calm Calm - N/A   Clear
5:00 AM 57.2 °F 46.4 °F 67% 29.79 in 10.0 mi SE 5.8 mph - N/A   Clear
5:20 AM 55.4 °F 46.4 °F 72% 29.79 in 10.0 mi NE 3.5 mph - N/A   Clear
5:40 AM 53.6 °F 42.8 °F 67% 29.79 in 10.0 mi NNE 6.9 mph - N/A   Clear
6:00 AM 53.6 °F 44.6 °F 72% 29.79 in 10.0 mi North 5.8 mph - N/A   Clear
6:20 AM 53.6 °F 46.4 °F 77% 29.80 in 10.0 mi NNE 4.6 mph - N/A   Clear
6:40 AM 53.6 °F 46.4 °F 77% 29.81 in 10.0 mi Calm Calm - N/A   Clear
7:00 AM 55.4 °F 46.4 °F 72% 29.81 in 10.0 mi NW 4.6 mph - N/A   Clear
7:20 AM 55.4 °F 46.4 °F 72% 29.82 in 10.0 mi Calm Calm - N/A   Clear
7:40 AM 57.2 °F 46.4 °F 67% 29.82 in 10.0 mi Calm Calm - N/A   Clear
8:00 AM 57.2 °F 46.4 °F 67% 29.82 in 10.0 mi SSE 4.6 mph - N/A   Clear
8:20 AM 59.0 °F 46.4 °F 63% 29.82 in 10.0 mi Variable 4.6 mph - N/A   Clear
8:40 AM 60.8 °F 46.4 °F 59% 29.82 in 10.0 mi South 4.6 mph - N/A   Clear
9:00 AM 62.6 °F 48.2 °F 59% 29.82 in 10.0 mi Calm Calm - N/A   Clear
9:20 AM 62.6 °F 48.2 °F 59% 29.82 in 10.0 mi Variable 3.5 mph - N/A   Clear
9:40 AM 66.2 °F 46.4 °F 49% 29.81 in 10.0 mi Calm Calm - N/A   Clear
10:00 AM 68.0 °F 46.4 °F 46% 29.81 in 10.0 mi Calm Calm - N/A   Clear
10:20 AM 69.8 °F 46.4 °F 43% 29.81 in 10.0 mi Calm Calm - N/A   Clear
10:40 AM 69.8 °F 44.6 °F 40% 29.80 in 10.0 mi Calm Calm - N/A   Clear
11:00 AM 71.6 °F 42.8 °F 35% 29.80 in 10.0 mi East 4.6 mph 11.5 mph N/A   Clear
11:20 AM 71.6 °F 41.0 °F 33% 29.80 in 10.0 mi Variable 4.6 mph - N/A   Clear
11:40 AM 73.4 °F 41.0 °F 31% 29.79 in 10.0 mi Variable 6.9 mph - N/A   Clear
12:00 PM 73.4 °F 41.0 °F 31% 29.79 in 10.0 mi Variable 4.6 mph - N/A   Clear
12:20 PM 75.2 °F 39.2 °F 27% 29.78 in 10.0 mi ENE 9.2 mph 15.0 mph N/A   Clear
12:40 PM 75.2 °F 39.2 °F 27% 29.77 in 10.0 mi SSE 6.9 mph 15.0 mph N/A   Clear
1:00 PM 75.2 °F 37.4 °F 25% 29.76 in 10.0 mi East 6.9 mph - N/A   Clear
1:20 PM - - N/A% 29.75 in - North - - N/A   Unknown
1:40 PM 77.0 °F 39.2 °F 26% 29.74 in 10.0 mi East 11.5 mph - N/A   Unknown
2:00 PM 77.0 °F 39.2 °F 26% 29.73 in 10.0 mi SE 10.4 mph - N/A   Unknown
2:20 PM 77.0 °F 39.2 °F 26% 29.72 in 10.0 mi SE 10.4 mph - N/A   Clear
2:40 PM 77.0 °F 39.2 °F 26% 29.71 in 10.0 mi Calm Calm - N/A   Clear
3:00 PM 78.8 °F 42.8 °F 28% 29.69 in 10.0 mi South 11.5 mph 18.4 mph N/A   Clear
3:20 PM 78.8 °F 42.8 °F 28% 29.69 in 10.0 mi SW 13.8 mph - N/A   Clear
3:40 PM 77.0 °F 42.8 °F 29% 29.68 in 10.0 mi SW 16.1 mph - N/A   Clear
4:00 PM 78.8 °F 42.8 °F 28% 29.67 in 10.0 mi SSW 12.7 mph 19.6 mph N/A   Clear
4:20 PM 77.0 °F 42.8 °F 29% 29.67 in 10.0 mi SW 16.1 mph - N/A   Clear
4:40 PM 77.0 °F 42.8 °F 29% 29.66 in 10.0 mi SW 17.3 mph - N/A   Clear
5:00 PM 75.2 °F 42.8 °F 31% 29.67 in 10.0 mi SSW 17.3 mph 24.2 mph N/A   Clear
5:20 PM 75.2 °F 42.8 °F 31% 29.66 in 10.0 mi SW 18.4 mph - N/A   Unknown
6:00 PM 71.6 °F 48.2 °F 43% 29.67 in 10.0 mi SSW 18.4 mph 26.5 mph N/A   Clear
6:20 PM 69.8 °F 48.2 °F 46% 29.67 in 10.0 mi SSW 18.4 mph - N/A   Clear
6:40 PM 71.6 °F 50.0 °F 46% 29.67 in 10.0 mi West 16.1 mph - N/A   Clear
7:00 PM 71.6 °F 50.0 °F 46% 29.67 in 10.0 mi WNW 12.7 mph 20.7 mph N/A   Clear
7:20 PM 69.8 °F 50.0 °F 49% 29.68 in 10.0 mi West 13.8 mph 20.7 mph N/A   Clear
7:40 PM 68.0 °F 50.0 °F 52% 29.68 in 10.0 mi SW 13.8 mph 19.6 mph N/A   Clear
8:00 PM 64.4 °F 50.0 °F 59% 29.68 in 10.0 mi SSW 12.7 mph - N/A   Clear
8:20 PM 64.4 °F 50.0 °F 59% 29.69 in 10.0 mi SSW 11.5 mph - N/A   Partly Cloudy
8:40 PM 60.8 °F 50.0 °F 68% 29.69 in 10.0 mi SSW 15.0 mph - N/A Thunderstorm Clear
9:00 PM 60.8 °F 50.0 °F 68% 29.71 in 10.0 mi South 13.8 mph - N/A   Partly Cloudy
9:20 PM 59.0 °F 50.0 °F 72% 29.72 in 10.0 mi SSW 13.8 mph - N/A   Partly Cloudy
9:40 PM 59.0 °F 50.0 °F 72% 29.73 in 10.0 mi SSW 13.8 mph - N/A   Partly Cloudy
10:00 PM 59.0 °F 50.0 °F 72% 29.73 in 10.0 mi SW 13.8 mph - N/A   Clear
10:20 PM 59.0 °F 50.0 °F 72% 29.74 in 10.0 mi SW 13.8 mph - N/A   Scattered Clouds
10:40 PM 59.0 °F 50.0 °F 72% 29.74 in 10.0 mi SSW 16.1 mph - N/A   Mostly Cloudy
11:00 PM 59.0 °F 50.0 °F 72% 29.75 in 10.0 mi SW 15.0 mph - N/A Thunderstorm Overcast
11:20 PM 59.0 °F 50.0 °F 72% 29.76 in 10.0 mi Calm Calm 13.8 mph N/A   Overcast
11:40 PM 59.0 °F 50.0 °F 72% 29.77 in 10.0 mi SSE 5.8 mph - N/A Thunderstorm Thunderstorm